Time,TemperatureF,DewpointF,PressureIn,WindDirection,WindDirectionDegrees,WindSpeedMPH,WindSpeedGustMPH,Humidity,HourlyPrecipIn,Conditions,Clouds,dailyrainin,SoftwareType,DateUTC
2013-12-13 00:12:00,14.0,12.0,29.50,ENE,71,0.0,2.0,90,0.00,,,0.00,,2013-12-13 09:12:00,
2013-12-13 00:22:00,14.0,12.0,29.50,ENE,71,0.0,3.0,90,0.00,,,0.00,,2013-12-13 09:22:00,
2013-12-13 00:53:00,14.0,11.0,29.49,ENE,71,0.0,1.0,89,0.00,,,0.00,,2013-12-13 09:53:00,
2013-12-13 01:23:00,14.0,11.0,29.50,East,79,1.0,3.0,89,0.00,,,0.00,,2013-12-13 10:23:00,
2013-12-13 01:42:00,14.0,12.0,29.50,ENE,73,1.0,5.0,90,0.00,,,0.00,,2013-12-13 10:42:00,
2013-12-13 01:53:00,15.0,13.0,29.49,ENE,76,1.0,7.0,90,0.00,,,0.00,,2013-12-13 10:53:00,
2013-12-13 02:22:00,15.0,12.0,29.50,East,83,1.0,7.0,89,0.00,,,0.00,,2013-12-13 11:22:00,
2013-12-13 02:42:00,15.0,12.0,29.50,East,80,1.0,6.0,89,0.00,,,0.00,,2013-12-13 11:42:00,
2013-12-13 02:53:00,15.0,12.0,29.49,East,89,3.0,9.0,89,0.00,,,0.00,,2013-12-13 11:53:00,
2013-12-13 03:42:00,15.0,12.0,29.48,East,79,2.0,8.0,88,0.00,,,0.00,,2013-12-13 12:42:00,
2013-12-13 03:52:00,15.0,12.0,29.48,East,96,2.0,7.0,88,0.00,,,0.00,,2013-12-13 12:52:00,
2013-12-13 04:12:00,15.0,12.0,29.47,East,90,1.0,8.0,88,0.00,,,0.00,,2013-12-13 13:12:00,
2013-12-13 04:22:00,15.0,12.0,29.47,East,83,2.0,9.0,89,0.00,,,0.00,,2013-12-13 13:22:00,
2013-12-13 04:42:00,16.0,13.0,29.47,East,81,1.0,7.0,88,0.00,,,0.00,,2013-12-13 13:42:00,
2013-12-13 04:52:00,16.0,13.0,29.47,East,81,1.0,7.0,88,0.00,,,0.00,,2013-12-13 13:52:00,
2013-12-13 05:22:00,17.0,14.0,29.44,NE,52,2.0,10.0,89,0.00,,,0.00,,2013-12-13 14:22:00,
2013-12-13 05:42:00,17.0,14.0,29.43,ENE,70,3.0,8.0,87,0.00,,,0.00,,2013-12-13 14:42:00,
2013-12-13 05:52:00,17.0,14.0,29.42,NE,48,4.0,9.0,86,0.00,,,0.00,,2013-12-13 14:52:00,
2013-12-13 06:21:00,18.0,15.0,29.41,ENE,71,5.0,13.0,87,0.00,,,0.00,,2013-12-13 15:21:00,
2013-12-13 06:43:00,18.0,14.0,29.40,ENE,60,6.0,13.0,85,0.00,,,0.00,,2013-12-13 15:43:00,
2013-12-13 06:53:00,18.0,14.0,29.41,East,86,5.0,14.0,84,0.00,,,0.00,,2013-12-13 15:53:00,
2013-12-13 07:13:00,18.0,14.0,29.40,ENE,65,5.0,14.0,83,0.00,,,0.00,,2013-12-13 16:13:00,
2013-12-13 07:23:00,18.0,13.0,29.41,ENE,73,3.0,13.0,82,0.00,,,0.00,,2013-12-13 16:23:00,
2013-12-13 07:43:00,18.0,13.0,29.39,ENE,57,3.0,15.0,81,0.00,,,0.00,,2013-12-13 16:43:00,
2013-12-13 07:53:00,18.0,13.0,29.38,ENE,57,6.0,12.0,81,0.00,,,0.00,,2013-12-13 16:53:00,
2013-12-13 08:12:00,19.0,14.0,29.38,ENE,64,7.0,16.0,80,0.00,,,0.00,,2013-12-13 17:12:00,
2013-12-13 08:22:00,19.0,14.0,29.36,ENE,62,6.0,14.0,79,0.00,,,0.00,,2013-12-13 17:22:00,
2013-12-13 08:52:00,19.0,14.0,29.34,NE,37,7.0,18.0,79,0.00,,,0.00,,2013-12-13 17:52:00,
2013-12-13 09:12:00,19.0,13.0,29.33,NE,42,7.0,16.0,77,0.00,,,0.00,,2013-12-13 18:12:00,
2013-12-13 09:21:00,19.0,13.0,29.32,NE,53,9.0,17.0,77,0.00,,,0.00,,2013-12-13 18:21:00,
2013-12-13 09:42:00,19.0,13.0,29.32,NE,47,9.0,20.0,77,0.00,,,0.00,,2013-12-13 18:42:00,
2013-12-13 09:52:00,19.0,13.0,29.31,ENE,58,9.0,20.0,77,0.00,,,0.00,,2013-12-13 18:52:00,
2013-12-13 10:21:00,19.0,13.0,29.31,NE,53,7.0,17.0,76,0.00,,,0.00,,2013-12-13 19:21:00,
2013-12-13 10:42:00,20.0,13.0,29.29,NE,43,6.0,17.0,75,0.00,,,0.00,,2013-12-13 19:42:00,
2013-12-13 10:52:00,20.0,13.0,29.29,ENE,78,9.0,16.0,75,0.00,,,0.00,,2013-12-13 19:52:00,
2013-12-13 11:11:00,19.0,14.0,29.28,ENE,68,11.0,21.0,81,0.00,,,0.00,,2013-12-13 20:11:00,
2013-12-13 11:22:00,19.0,15.0,29.27,ENE,59,7.0,18.0,83,0.00,,,0.00,,2013-12-13 20:22:00,
2013-12-13 11:52:00,19.0,16.0,29.26,NE,34,7.0,23.0,86,0.00,,,0.00,,2013-12-13 20:52:00,
2013-12-13 12:11:00,19.0,16.0,29.26,NE,52,5.0,15.0,88,0.00,,,0.00,,2013-12-13 21:11:00,
2013-12-13 12:21:00,19.0,16.0,29.26,NE,56,6.0,20.0,89,0.00,,,0.00,,2013-12-13 21:21:00,
2013-12-13 12:53:00,18.0,16.0,29.23,ENE,61,3.0,17.0,90,0.00,,,0.00,,2013-12-13 21:53:00,
2013-12-13 13:13:00,19.0,17.0,29.22,NE,48,6.0,16.0,90,0.00,,,0.00,,2013-12-13 22:13:00,
2013-12-13 13:23:00,19.0,17.0,29.21,NNE,22,6.0,14.0,90,0.00,,,0.00,,2013-12-13 22:23:00,
2013-12-13 13:42:00,19.0,17.0,29.21,NNE,18,6.0,14.0,91,0.00,,,0.00,,2013-12-13 22:42:00,
2013-12-13 13:53:00,19.0,17.0,29.20,NE,53,6.0,21.0,91,0.00,,,0.00,,2013-12-13 22:53:00,
2013-12-13 14:22:00,19.0,17.0,29.17,ENE,59,4.0,12.0,92,0.00,,,0.00,,2013-12-13 23:22:00,
2013-12-13 14:52:00,20.0,18.0,29.13,ENE,75,2.0,10.0,92,0.00,,,0.00,,2013-12-13 23:52:00,
2013-12-13 15:11:00,20.0,18.0,29.12,ENE,68,2.0,8.0,92,0.00,,,0.00,,2013-12-14 00:11:00,
2013-12-13 15:21:00,21.0,19.0,29.11,ENE,67,2.0,13.0,92,0.00,,,0.00,,2013-12-14 00:21:00,
2013-12-13 15:42:00,21.0,19.0,29.10,ENE,67,4.0,16.0,92,0.00,,,0.00,,2013-12-14 00:42:00,
2013-12-13 15:52:00,21.0,19.0,29.10,ENE,65,3.0,12.0,92,0.00,,,0.00,,2013-12-14 00:52:00,
2013-12-13 16:22:00,22.0,20.0,29.07,NE,48,3.0,10.0,93,0.00,,,0.00,,2013-12-14 01:22:00,
2013-12-13 16:52:00,22.0,20.0,29.05,NE,48,3.0,10.0,93,0.00,,,0.00,,2013-12-14 01:52:00,
2013-12-13 17:21:00,23.0,21.0,29.03,NE,54,3.0,12.0,93,0.00,,,0.00,,2013-12-14 02:21:00,
2013-12-13 17:42:00,23.0,21.0,29.03,East,79,5.0,12.0,93,0.00,,,0.00,,2013-12-14 02:42:00,
2013-12-13 17:52:00,23.0,21.0,29.02,East,83,4.0,9.0,93,0.00,,,0.00,,2013-12-14 02:52:00,
2013-12-13 18:21:00,23.0,21.0,29.01,NE,56,5.0,12.0,93,0.00,,,0.00,,2013-12-14 03:21:00,
2013-12-13 18:43:00,23.0,21.0,29.00,NE,55,2.0,17.0,93,0.00,,,0.00,,2013-12-14 03:43:00,
2013-12-13 18:54:00,22.0,20.0,28.99,NE,46,3.0,7.0,93,0.00,,,0.00,,2013-12-14 03:54:00,
2013-12-13 19:23:00,23.0,21.0,28.98,ENE,63,3.0,9.0,93,0.00,,,0.00,,2013-12-14 04:23:00,
2013-12-13 19:53:00,23.0,21.0,28.96,East,81,3.0,12.0,93,0.00,,,0.00,,2013-12-14 04:53:00,
2013-12-13 20:22:00,23.0,22.0,28.95,ENE,59,4.0,9.0,94,0.00,,,0.00,,2013-12-14 05:22:00,
2013-12-13 20:42:00,23.0,22.0,28.94,East,85,3.0,10.0,94,0.00,,,0.00,,2013-12-14 05:42:00,
2013-12-13 20:52:00,23.0,22.0,28.94,East,81,2.0,9.0,94,0.00,,,0.00,,2013-12-14 05:52:00,
2013-12-13 21:21:00,24.0,23.0,28.92,ENE,63,3.0,9.0,94,0.00,,,0.00,,2013-12-14 06:21:00,
2013-12-13 21:42:00,24.0,23.0,28.92,NE,47,2.0,6.0,94,0.00,,,0.00,,2013-12-14 06:42:00,
2013-12-13 21:52:00,24.0,23.0,28.91,ENE,78,2.0,7.0,94,0.00,,,0.00,,2013-12-14 06:52:00,
2013-12-13 22:22:00,24.0,23.0,28.90,ENE,73,2.0,7.0,94,0.00,,,0.00,,2013-12-14 07:22:00,
2013-12-13 22:42:00,24.0,23.0,28.90,ENE,73,0.0,3.0,94,0.00,,,0.00,,2013-12-14 07:42:00,
2013-12-13 22:52:00,24.0,23.0,28.90,East,86,2.0,3.0,94,0.00,,,0.00,,2013-12-14 07:52:00,
2013-12-13 23:22:00,24.0,22.0,28.89,South,188,2.0,3.0,92,0.00,,,0.00,,2013-12-14 08:22:00,
2013-12-13 23:52:00,21.0,19.0,28.89,SSW,208,1.0,3.0,92,0.00,,,0.00,,2013-12-14 08:52:00,